KORLKVRB

Guest
Details From KORL - Executive
To KVRB - Vero Beach Muni
Flight Number -
Tags Generated
Created
Modified
Stats Distance 72 nm / 134 km
Max Altitude 0 ft / 0 m
Waypoints 2
Social Downloads 0
Likes 0
Share VATSIM

Download

Looking for another format? Having issues loading an existing format? Contact us
Advertisement - Login to hide

Notes

Generated

Route

KORL KVRB

ID Type Via Altitude Latitude Longitude Leg Dist Tot Dist Heading (true) Name
O KORL APT - 0 ft / 0 m 28.54882˚ -81.34131˚ - 0 nm - -
O KVRB APT - 0 ft / 0 m 27.66038˚ -80.41690˚ 72 nm 72 nm 137° / 138° Vero Beach Municipal

Altitude Profile

Advertisement - Login to hide

KORL

Details ICAO KORL (ORL)
Name Orando Executive
Region United States
Timezone America/New_York (UTC-4.0)
Stats Elevation 112 ft / 34 m (AMSL)
Location 28.545372° -81.333261°
Runways 2
Magnetic Variation 6.443° W

METAR

KORL 250053Z 10006KT 10SM CLR 27/21 A3006 RMK AO2 SLP182 T02670211

Decode

TAF

Not found

Departure Runways

ID Width Length Bearing (true) Bearing (mag) Surface Threshold Offset Overrun Length
07 150 ft / 46 m 5,999 ft / 1,828 m 66.58° 73.02° Asphalt 0 ft / 0 m 0 ft / 0 m
13 100 ft / 30 m 4,640 ft / 1,414 m 130.99° 137.43° Asphalt 0 ft / 0 m 561 ft / 171 m
25 150 ft / 46 m 5,999 ft / 1,828 m 246.59° 253.03° Asphalt 0 ft / 0 m 0 ft / 0 m
31 100 ft / 30 m 4,640 ft / 1,414 m 311.00° 317.44° Asphalt 0 ft / 0 m 374 ft / 114 m

KVRB

Details ICAO KVRB (VRB)
Name Vero Beach Municipal
Region United States
Timezone America/New_York (UTC-4.0)
Stats Elevation 24 ft / 7 m (AMSL)
Location 27.656065° -80.417349°
Runways 3
Magnetic Variation 6.883° W

METAR

KVRB 250053Z 11008KT 10SM CLR 26/23 A3005 RMK AO2 RAE2354 SLP176 P0000 T02560228

Decode

TAF

KVRB 242320Z 2500/2524 12010KT P6SM SCT020 BKN060 OVC100 FM250300 16003KT P6SM SKC FM251400 14010KT P6SM VCSH SCT030 BKN050 TEMPO 2515/2519 5SM SHRA BKN025 OVC050 FM252000 13013KT P6SM SCT030 BKN100

Decode

Destination Runways

ID Width Length Bearing (true) Bearing (mag) Surface Threshold Offset Overrun Length
11L 75 ft / 23 m 3,507 ft / 1,069 m 110.96° 117.84° Asphalt 200 ft / 61 m 0 ft / 0 m
11R 98 ft / 30 m 7,321 ft / 2,231 m 110.72° 117.60° Asphalt 200 ft / 61 m 151 ft / 46 m
22 98 ft / 30 m 4,980 ft / 1,518 m 215.96° 222.84° Asphalt 200 ft / 61 m 0 ft / 0 m
29L 98 ft / 30 m 7,321 ft / 2,231 m 290.73° 297.61° Asphalt 200 ft / 61 m 177 ft / 54 m
29R 75 ft / 23 m 3,507 ft / 1,069 m 290.96° 297.84° Asphalt 200 ft / 61 m 0 ft / 0 m
4 98 ft / 30 m 4,980 ft / 1,518 m 35.96° 42.84° Asphalt 200 ft / 61 m 0 ft / 0 m

Popular Alternatives